{"data":{"norad_id":60499,"intl_designator":"2024-149AH","name":"FLOCK 4BE-30","alt_names":[],"object_type":"PAYLOAD","status":"ACTIVE","operator":null,"country":"US","launch_date":"2024-08-16","launch_site_code":"AFWTR","launch_vehicle":null,"mission":null,"orbit_class":"UNKNOWN","rcs_meters":null,"size_class":null,"mass_kg":null,"dimensions":null,"purposes":["earth_obs"],"wikipedia_slug":null,"has_3d_model":false,"image_url":null,"decayed_at":null,"tle_current":{"epoch":"2026-05-25T04:46:18.408288Z","epoch_age_seconds":61128,"freshness":"FRESH","line1":"1 60499U 24149AH  26145.19882417  .00109308  00000+0  18894-2 0  9998","line2":"2 60499  97.3783 230.0463 0001634 180.8296 179.2953 15.50576637 98203","mean_motion":15.50576637,"eccentricity":0.0001634,"inclination_deg":97.3783,"raan_deg":230.0463,"arg_perigee_deg":180.8296,"mean_anomaly_deg":179.2953,"bstar":0.0018894,"rev_number":9820,"period_min":92.86867644195,"perigee_km":413.93135198232,"apogee_km":416.1513626695,"semimajor_km":6793.1783573259,"source":"CELESTRAK","updated_at":"2026-05-25T13:38:13.305119Z"}}}